Meteo Giornale » Osservazioni meteo Stati Uniti (USA) » Linden

ore: 10:15 - Osservazioni Meteo Linden
Lat. 40° 37' N Lon. 74° 15' W Alt. 7 metri s.l.m.

molto_nuvoloso

24 °C

Molto Nuvoloso

Temp. 24 Ore

22 °C

26 °C

Nord

5.5 Km/h

Dew point 22 °C

Umidità 88 %

Visibilità  11 Km

Il sole sorge alle ore 06:24

Il sole tramonta alle ore 19:29

Data e Ora Cielo e Fenomeni T °C DP °C Um. % Pres. hPa Vis. km Vento km/h
Oggi h: 10:15 molto_nuvoloso Molto Nuvoloso 24 22 88 1016 11 N 5.5
Oggi h: 09:55 coperto Coperto 25 22 83 1016 11 O 7.4
Oggi h: 09:35 coperto Coperto 24 22 88 1016 11 O 7.4
Oggi h: 09:15 foschia Foschia 24 22 88 1016 8 O/NO 9.3
Oggi h: 08:55 foschia Foschia 24 22 88 1016 8 N 0
Oggi h: 08:35 foschia Foschia 23 22 94 1016 6 N 0
Oggi h: 08:15 foschia Foschia 23 21 88 1016 6 N 0
Oggi h: 07:55 foschia Foschia 23 21 88 1016 6 N 0
Oggi h: 07:35 coperto_pioggia Pioggia 23 21 88 1016 6 N 0
Oggi h: 07:15 coperto_pioggia Pioviggine 23 21 88 1016 6 N 0
Oggi h: 06:55 foschia Foschia 23 21 88 1016 8 N 5.5
Oggi h: 06:35 coperto Coperto 23 21 88 1016 11 N 0
Oggi h: 06:15 molto_nuvoloso Molto Nuvoloso 22 21 94 1016 11 N 5.5
Oggi h: 05:55 molto_nuvoloso Molto Nuvoloso 22 21 94 1016 11 O 7.4
Oggi h: 05:35 molto_nuvoloso Molto Nuvoloso 22 21 94 1016 11 O 7.4
Oggi h: 05:15 coperto Coperto 22 20 88 1016 11 N 0
Oggi h: 04:55 coperto Coperto 22 20 88 1016 10 O/NO 7.4
Oggi h: 04:35 coperto Coperto 22 20 88 1016 10 N 0
Oggi h: 04:15 coperto Coperto 22 20 88 1016 10 N 5.5
Oggi h: 03:55 molto_nuvoloso Molto Nuvoloso 22 20 88 1016 10 N 0
Oggi h: 03:35 coperto Coperto 22 20 88 1016 10 N 0
Oggi h: 03:15 coperto Coperto 22 20 88 1016 10 N 0
Oggi h: 02:55 coperto Coperto 22 20 88 1017 10 N 0
Oggi h: 02:35 coperto Coperto 22 20 88 1017 10 N 0
Oggi h: 02:15 coperto_pioggia Pioggia 22 20 88 1017 10 N 0
Oggi h: 01:55 coperto Coperto 22 20 88 1017 10 N 0
Oggi h: 01:35 coperto Coperto 22 19 83 1017 10 N 0
Oggi h: 01:15 coperto Coperto 22 19 83 1017 10 N 0
Oggi h: 00:55 coperto_pioggia Pioviggine 22 19 83 1017 10 N 5.5
Oggi h: 00:35 coperto Coperto 22 19 83 1017 10 N 5.5
Oggi h: 00:15 coperto Coperto 23 19 78 1018 10 N 5.5
Ieri h: 23:55 coperto Coperto 23 19 78 1017 10 S/SO 7.4
Ieri h: 23:35 coperto Coperto 23 19 78 1018 10 N 0
Ieri h: 23:15 coperto Coperto 23 19 78 1018 10 N 5.5
Ieri h: 22:55 coperto Coperto 23 19 78 1018 10 N 5.5
Ieri h: 22:35 coperto Coperto 23 19 78 1018 10 S 7.4
Ieri h: 22:15 coperto Coperto 23 19 78 1018 10 N 5.5
Ieri h: 21:55 coperto Coperto 23 19 78 1018 10 N 0
Ieri h: 21:35 coperto Coperto 23 19 78 1018 10 S 7.4
Ieri h: 21:15 coperto Coperto 23 19 78 1018 10 S/SE 7.4
Ieri h: 20:55 coperto Coperto 23 19 78 1018 10 S 7.4
Ieri h: 20:35 coperto Coperto 23 19 78 1018 10 S/SE 7.4
Ieri h: 19:55 coperto Coperto 23 19 78 1018 10 N 5.5
Ieri h: 19:35 coperto Coperto 23 19 78 1018 10 SE 7.4
Ieri h: 18:55 molto_nuvoloso Molto Nuvoloso 24 19 73 1018 10 S/SE 9.3
Ieri h: 18:35 molto_nuvoloso Molto Nuvoloso 24 19 73 1018 10 S/SE 7.4
Ieri h: 18:15 coperto Coperto 24 19 73 1018 10 S 7.4
Ieri h: 17:55 molto_nuvoloso Molto Nuvoloso 25 19 69 1018 10 S/SE 9.3
Ieri h: 17:35 molto_nuvoloso Molto Nuvoloso 24 18 69 1019 10 S/SE 7.4
Ieri h: 16:35 coperto Coperto 24 18 69 1019 10 S/SE 11.1
Ieri h: 16:15 coperto Coperto 24 18 69 1019 10 S/SE 9.3
Ieri h: 15:55 coperto Coperto 24 18 69 1019 10 S/SE 7.4
Ieri h: 15:35 coperto Coperto 24 17 64 1019 10 SE 11.1
Ieri h: 14:55 coperto Coperto 24 17 64 1020 10 S 11.1
Ieri h: 14:35 coperto Coperto 25 17 61 1020 10 S/SE 11.1
Ieri h: 14:15 coperto Coperto 25 17 61 1020 10 S/SE 13
Ieri h: 13:55 coperto Coperto 25 16 57 1020 10 S/SE 11.1
Ieri h: 13:35 coperto Coperto 26 16 54 1020 10 S/SE 14.8
Ieri h: 13:15 coperto Coperto 26 16 54 1020 10 S/SE 13
Ieri h: 12:55 coperto Coperto 26 16 54 1020 10 N 0
Ieri h: 12:35 molto_nuvoloso Molto Nuvoloso 26 16 54 1020 10 SE 9.3
Ieri h: 12:15 nuvoloso Nuvoloso 25 16 57 1020 10 N 0
Ieri h: 11:55 nuvoloso Nuvoloso 25 16 57 1020 10 N 0
Ieri h: 11:35 molto_nuvoloso Molto Nuvoloso 25 16 57 1020 10 S 7.4
Ieri h: 11:15 molto_nuvoloso Molto Nuvoloso 24 16 60 1020 10 N 0
Ieri h: 10:55 nuvoloso Nuvoloso 25 17 61 1020 10 N 5.5
Ieri h: 10:35 nuvoloso Nuvoloso 24 17 64 1020 10 E/NE 9.3